Regional Weather Roundup
Issued by NWS Charleston, SC

Current Version | Previous Version | Graphics & Text | Print | Product List | Glossary On
Versions: 1 2 3 4 5 6 7 8 9 10 11 12 13 14 15 16 17 18 19 20 21 22 23 24 25 26 27 28 29 30 31 32 33 34 35 36 37 38 39 40 41 42 43 44 45 46 47 48 49 50
000
ASUS42 KCHS 290626
RWRCHS

REGIONAL WEATHER ROUNDUP
NATIONAL WEATHER SERVICE CHARLESTON SC
200 AM EDT SUN MAR 29 2015

NOTE: "FAIR" INDICATES FEW OR NO CLOUDS BELOW 12,000 FEET WITH NO
SIGNIFICANT WEATHER AND/OR OBSTRUCTIONS TO VISIBILITY.

NOT ALL STATIONS ARE QUALITY CONTROLLED BY THE NATIONAL
WEATHER SERVICE. USE DATA WITH CAUTION...ESPECIALLY
DEWPOINT OBSERVATIONS.

SCZ027-030-031-034>040-042>050-290700-
...SOUTHEAST SOUTH CAROLINA...

CITY           SKY/WX    TMP DP  RH WIND       PRES   REMARKS
N CHARLESTON   CLEAR     36  32  85 N3        30.25R
6HR MIN TEMP:  36; 6HR MAX TEMP:  49;

WATERFRONT PRK   N/A     50 N/A N/A N13         N/A
MOUNT PLEASANT LGT RAIN  39  32  75 CALM      30.25R
PINOPOLIS        N/A     48  28  46 NE14      30.18R
MONCKS CORNER  FAIR      45  27  49 NE6       30.26R
SUMMERVILLE    FAIR      39  32  75 NW5       30.28R WCI  36
BEAUFORT MCAS  CLEAR     39  33  79 W5        30.24R WCI  36
6HR MIN TEMP:  39; 6HR MAX TEMP:  53;

BEAUFORT ARPT  FAIR      43  36  75 NW7       30.24S
HILTON HEAD IS CLEAR     46  28  49 NW6       30.26R
WALTERBORO     CLEAR     41  28  60 N8        30.28R
ALLENDALE      FAIR      43  25  49 N8        30.27R

...SOUTHERN MIDLANDS AND PEE DEE...

CITY           SKY/WX    TMP DP  RH WIND       PRES   REMARKS
GEORGETOWN     NOT AVBL
KINGSTREE      NOT AVBL
ORANGEBURG     CLEAR     41  18  39 NE10      30.28R
6HR MIN TEMP:  38; 6HR MAX TEMP:  52;

BARNWELL       FAIR      39  27  60 N7        30.29R WCI  34
AIKEN          FAIR      36  19  51 N6        30.32R WCI  31
MANNING        FLURRIES  37  21  52 N7        30.28R WCI  32
COLUMBIA       CLEAR     41  19  41 N5        30.29R
6HR MIN TEMP:  41; 6HR MAX TEMP:  50;

SUMTER         CLEAR     38  17  42 NE12      30.27R WCI  30
6HR MIN TEMP:  37; 6HR MAX TEMP:  49;

FLORENCE       CLEAR     37  18  46 NE10      30.30R WCI  30
6HR MIN TEMP:  37; 6HR MAX TEMP:  47;

MYRTLE BEACH   CLEAR     39  23  52 N18       30.30R WCI  30
N MYRTLE BEACH CLEAR     39  25  57 NE10      30.27R WCI  32
6HR MIN TEMP:  37; 6HR MAX TEMP:  49;


$$

GAZ063-065-086>088-099>101-113>116-118-119-134>141-150-290700-
...SOUTHEAST GEORGIA...

CITY           SKY/WX    TMP DP  RH WIND       PRES   REMARKS
SAVANNAH ARPT  CLEAR     39  31  72 SW3       30.26R
6HR MIN TEMP:  38; 6HR MAX TEMP:  52;

HUNTER AAF     CLEAR     40  31  69 NW5       30.23R WCI  36
6HR MIN TEMP:  37; 6HR MAX TEMP:  53;

FORT STEWART   CLEAR     37  32  82 CALM      30.24R
6HR MIN TEMP:  37; 6HR MAX TEMP:  52;

STATESBORO     CLEAR     40  28  61 NW7       30.26S WCI  35
SYLVANIA       CLEAR     41  27  56 N7        30.27R
CLAXTON        FAIR      36  32  87 NW3       30.27R

...CSRA...CENTRAL AND FAR SOUTHEAST GEORGIA...

CITY           SKY/WX    TMP DP  RH WIND       PRES   REMARKS
THOMSON        CLEAR     32  32  99 CALM      30.34R
AUGUSTA-BUSH   CLEAR     40  19  43 NE6       30.29R WCI  36
6HR MIN TEMP:  40; 6HR MAX TEMP:  52;

AUGUSTA-DANIEL CLEAR     41  17  38 N8        30.29R
SWAINSBORO     FAIR      45   3  18 N6        30.29R
VIDALIA        CLEAR     43  28  56 N7        30.27S
EASTMAN        FAIR      34  34 100 CALM      30.32R
HAZLEHURST     FAIR      41  39  93 CALM      30.28R
ALMA           PTCLDY    43  38  82 CALM      30.27R
6HR MIN TEMP:  43; 6HR MAX TEMP:  53;

WAYCROSS       PTCLDY    48  41  77 N3        30.27S
JESUP          FAIR      45  34  65 N3        30.27S
BAXLEY         FAIR      43  32  65 N5        30.27S
BRUNSWICK      CLEAR     41  37  87 NW3       30.27S
SAINT SIMONS   PTCLDY    46  37  71 NW3       30.26R
6HR MIN TEMP:  45; 6HR MAX TEMP:  55;


$$

SCZ027-028-034-036>038-045-046-048>050-GAZ119-141-290700-
...LAKE AND SUPPLEMENTAL COASTAL OBSERVATIONS...

STATION/POSITION TIME  TEMP    WIND        PRES    WAVE   SWELL
                       AIR SEA DIR/SP/G            HT/PER HT/PER/DIR
                 (UTC) (F)     (DEG/KT/KT) (MB)    (FT/S) (FT/S/D)
UPR LAKE MARION  NOT AVBL
WINYAH BAY       0545   42      10/  6     1023.0R
LAKE MURRAY      0600   39      20/  2/  4 1025.1R
ACE BASIN NERRS  NOT AVBL
FORT PULASKI     0506   49 61  320/  5/  6 1024.3R
SAPELO ISLAND    0600   46     320/  3     1024.0S

$$

ANZ835-935-AMZ111-154-330-350-352-354-370-450-454-472-290700-
...C-MAN AND BUOY OBSERVATIONS...

STATION/POSITION TIME  TEMP    WIND        PRES    WAVE   SWELL
                       AIR SEA DIR/SP/G            HT/PER HT/PER/DIR
                 (UTC) (F)     (DEG/KT/KT) (MB)    (FT/S) (FT/S/D)
BUOY 41004       0550   55 68  350/ 12/ 14 1022.9R   4/ 5   2/ 9
BUOY 41008       0550   55 60  350/ 12/ 16 1023.9R   2/ 3   2/ 70/ 8
FOLLY BEACH CMAN 0600   49      20/ 10/ 12 1023.8R
CAPERS NEARSHORE NOT AVBL
FRIPP NEARSHORE  0500   54      10/  8/ 10 1022.7S


STATION/POSITION TIME  TEMP    WIND        PRES    WAVE   SWELL
                       AIR SEA DIR/SP/G            HT/PER HT/PER/DIR
                 (UTC) (F)     (DEG/KT/KT) (MB)    (FT/S) (FT/S/D)
5E ST. MARYS GA  0521      60                N/A     2/ 9
FRYING PAN BUOY  0550   50 65  360/ 17/ 21 1023.7R   4/ 5   2/150/ 8
BUOY 41025       NOT AVBL
CAPE LOOKOUT NC  0600   39     350/ 19/ 23 1024.0R
BUOY 41002       0550   56 68  300/ 16/ 21 1020.8R  10/ 8   7/350/ 9
BUOY 41010       0520   66 76  310/ 14/ 19 1022.4F
ST AUGUSTINE FL  0600   51 59  330/  6/  6 1024.9F


$$



USA.gov is the U.S. government's official web portal to all federal, state and local government web resources and services.